TimeAST,TemperatureF,Dew PointF,Humidity,Sea Level PressureIn,VisibilityMPH,Wind Direction,Wind SpeedMPH,Gust SpeedMPH,PrecipitationIn,Events,Conditions,WindDirDegrees,DateUTC
12:00 AM,26.6,24.8,93,29.81,5.0,SE,17.3,25.3,N/A,Snow,Light Snow,130,2013-02-12 04:00:00
1:00 AM,28.4,24.8,86,29.76,15.0,SE,21.9,29.9,N/A,Snow,Low Drifting Snow,140,2013-02-12 05:00:00
1:04 AM,28.4,24.8,86,29.76,10.0,SE,20.7,29.9,N/A,Snow,Light Snow,140,2013-02-12 05:04:00
2:00 AM,28,26,91,29.71,5,SE,19.6,,,Snow,Light Snow,140,2013-02-12 06:00:00
2:00 AM,28.4,26.6,93,29.71,5.0,SE,19.6,-,N/A,Snow,Light Snow,140,2013-02-12 06:00:00
2:54 AM,30.2,28.4,93,29.66,15.0,SE,21.9,-,N/A,Snow,Light Ice Pellets,140,2013-02-12 06:54:00
3:00 AM,30.2,28.4,93,29.66,15.0,SE,19.6,-,N/A,Snow,Light Ice Pellets,140,2013-02-12 07:00:00
3:04 AM,30.2,28.4,93,29.65,15.0,SE,21.9,-,N/A,Rain-Snow,Light Freezing Rain,140,2013-02-12 07:04:00
3:24 AM,30.2,28.4,93,29.64,15.0,SE,19.6,26.5,N/A,Rain,Light Freezing Rain,140,2013-02-12 07:24:00
4:00 AM,32.0,30.2,93,29.60,10.0,SE,13.8,-,N/A,Rain,Light Freezing Rain,130,2013-02-12 08:00:00
4:10 AM,32.0,30.2,93,29.60,10.0,SE,12.7,-,N/A,Rain,Light Rain,140,2013-02-12 08:10:00
5:00 AM,33.8,32.0,93,29.57,10.0,SE,15.0,-,N/A,Rain,Light Rain,140,2013-02-12 09:00:00
5:11 AM,33.8,32.0,93,29.55,15.0,SE,11.5,18.4,N/A,,Overcast,140,2013-02-12 09:11:00
5:19 AM,33.8,32.0,93,29.55,10.0,SE,13.8,23.0,N/A,Rain,Light Rain,140,2013-02-12 09:19:00
6:00 AM,33.8,32.0,93,29.52,8.0,SE,12.7,-,N/A,Rain,Light Rain,130,2013-02-12 10:00:00
7:00 AM,33.8,33.8,100,29.47,10.0,SE,11.5,17.3,N/A,Rain,Light Rain,130,2013-02-12 11:00:00
8:00 AM,34,33,97,29.42,15,SE,10.4,,,Rain,Light Rain,130,2013-02-12 12:00:00
8:00 AM,33.8,33.8,100,29.42,15.0,SE,10.4,-,N/A,,Overcast,130,2013-02-12 12:00:00
9:00 AM,35.6,33.8,93,29.38,15.0,SSE,9.2,-,N/A,,Overcast,150,2013-02-12 13:00:00
9:14 AM,35.6,33.8,93,29.37,6.0,SE,10.4,-,N/A,,Light Drizzle,140,2013-02-12 13:14:00
10:00 AM,35.6,35.6,100,29.35,3.0,SE,6.9,-,N/A,,Light Drizzle,140,2013-02-12 14:00:00
10:31 AM,35.6,35.6,100,29.33,2.0,SSE,5.8,-,N/A,,Light Drizzle,150,2013-02-12 14:31:00
11:00 AM,37.4,37.4,100,29.30,2.0,ESE,3.5,-,N/A,,Light Drizzle,120,2013-02-12 15:00:00
11:23 AM,35.6,35.6,100,29.30,1.5,South,5.8,-,N/A,,Light Drizzle,170,2013-02-12 15:23:00
11:48 AM,37.4,37.4,100,29.29,0.8,SW,6.9,-,N/A,,Light Drizzle,220,2013-02-12 15:48:00
11:53 AM,37.4,37.4,100,29.29,0.4,SW,6.9,-,N/A,Fog,Light Drizzle,220,2013-02-12 15:53:00
12:00 PM,35.6,35.6,100,29.29,0.2,SW,5.8,-,N/A,Fog,Light Drizzle,220,2013-02-12 16:00:00
12:20 PM,35.6,35.6,100,29.28,0.2,SW,5.8,-,N/A,Fog-Rain,Light Rain Showers,220,2013-02-12 16:20:00
12:46 PM,35.6,35.6,100,29.28,1.5,WSW,8.1,-,N/A,Rain,Light Rain Showers,240,2013-02-12 16:46:00
1:00 PM,35.6,35.6,100,29.27,6.0,WSW,9.2,-,N/A,Rain,Light Rain Showers,250,2013-02-12 17:00:00
1:16 PM,35.6,35.6,100,29.26,5.0,West,6.9,-,N/A,Rain,Rain Showers,280,2013-02-12 17:16:00
1:32 PM,35.6,35.6,100,29.25,7.0,WNW,8.1,-,N/A,Rain-Snow,Light Rain,300,2013-02-12 17:32:00
1:42 PM,35.6,35.6,100,29.25,4.0,WNW,8.1,-,N/A,Snow,Light Snow,290,2013-02-12 17:42:00
2:00 PM,33,33,98,29.24,3,WNW,9.2,,,Snow,Light Snow,300,2013-02-12 18:00:00
2:00 PM,33.8,32.0,93,29.24,3.0,WNW,10.4,-,N/A,Snow,Light Snow,300,2013-02-12 18:00:00
2:07 PM,33.8,32.0,93,29.24,2.0,WNW,9.2,-,N/A,Snow,Light Snow,290,2013-02-12 18:07:00
3:00 PM,32.0,32.0,100,29.25,1.0,West,9.2,-,N/A,Snow,Light Snow,280,2013-02-12 19:00:00
3:14 PM,32.0,32.0,100,29.25,0.6,West,10.4,-,N/A,Snow,Light Snow,280,2013-02-12 19:14:00
3:52 PM,32.0,32.0,100,29.26,0.5,WNW,10.4,18.4,N/A,Snow,Snow,290,2013-02-12 19:52:00
4:00 PM,32.0,32.0,100,29.26,0.5,WNW,12.7,20.7,N/A,Snow,Snow,290,2013-02-12 20:00:00
4:14 PM,32.0,32.0,100,29.26,0.6,WNW,12.7,18.4,N/A,Snow,Light Snow,290,2013-02-12 20:14:00
4:42 PM,32.0,30.2,93,29.27,1.0,West,12.7,25.3,N/A,Snow,Light Snow,280,2013-02-12 20:42:00
5:00 PM,30.2,30.2,100,29.28,1.5,West,12.7,20.7,N/A,Snow,Light Snow,280,2013-02-12 21:00:00
5:36 PM,30.2,30.2,100,29.29,1.5,WNW,13.8,25.3,N/A,Snow,Light Snow,290,2013-02-12 21:36:00
6:00 PM,30.2,28.4,93,29.29,1.5,West,15.0,24.2,N/A,Snow,Light Snow,280,2013-02-12 22:00:00
7:00 PM,30.2,28.4,93,29.31,2.0,WNW,16.1,-,N/A,Snow,Light Snow,290,2013-02-12 23:00:00
8:00 PM,30,28,91,29.32,3,WNW,15.0,,,Snow,Light Snow,290,2013-02-13 00:00:00
8:00 PM,30.2,28.4,93,29.32,3.0,West,17.3,24.2,N/A,Snow,Light Snow,280,2013-02-13 00:00:00
9:00 PM,30.2,28.4,93,29.34,6.0,WNW,20.7,27.6,N/A,Snow,Light Snow,290,2013-02-13 01:00:00
10:00 PM,30.2,28.4,93,29.37,6.0,WNW,17.3,31.1,N/A,Snow,Light Snow,300,2013-02-13 02:00:00
11:00 PM,28.4,28.4,100,29.40,8.0,WNW,16.1,27.6,N/A,Snow,Light Snow,300,2013-02-13 03:00:00